AKDT,Max TemperatureF,Mean TemperatureF,Min TemperatureF,Max Dew PointF,MeanDew PointF,Min DewpointF,Max Humidity, Mean Humidity, Min Humidity, Max Sea Level PressureIn, Mean Sea Level PressureIn, Min Sea Level PressureIn, Max VisibilityMiles, Mean VisibilityMiles, Min VisibilityMiles, Max Wind SpeedMPH, Mean Wind SpeedMPH, Max Gust SpeedMPH,PrecipitationIn, CloudCover, Events, WindDirDegrees
2013-9-1,70,61,51,60,54,45,0,0,0,29.83,29.70,29.47,10,8,2,32,14,44,0.04,8,Rain,173
2013-9-2,68,59,49,54,51,47,0,0,0,29.47,29.31,29.23,10,10,5,36,22,45,0.03,6,Rain,150
2013-9-3,59,55,50,52,49,45,0,0,0,29.30,29.22,29.15,10,10,5,24,14,30,0.12,7,Rain,171
2013-9-4,55,51,47,50,46,39,0,0,0,29.67,29.48,29.31,10,9,2,22,14,31,0.07,8,Rain,200
2013-9-5,60,53,46,49,47,45,0,0,0,29.83,29.78,29.68,10,10,8,24,12,30,0.03,7,Rain,164
2013-9-6,51,49,46,49,47,43,0,0,0,29.82,29.51,29.36,10,9,5,23,12,31,0.44,8,Rain,351
2013-9-7,59,53,46,50,48,46,0,0,0,29.65,29.61,29.54,10,10,10,13,6,16,T,7,,203
2013-9-8,59,52,44,48,46,44,0,0,0,29.63,29.58,29.41,10,10,10,23,10,31,0.03,7,Rain,130
2013-9-9,61,56,51,55,51,48,0,0,0,29.50,29.38,29.32,10,10,7,23,12,33,0.16,7,Rain,111
2013-9-10,56,52,48,54,51,48,0,0,0,29.73,29.62,29.52,10,8,2,18,8,24,0.04,8,Rain,181
2013-9-11,59,51,42,48,45,40,0,0,0,29.81,29.77,29.73,10,10,7,15,0,20,0.00,6,,215
2013-9-12,57,51,45,47,44,39,0,0,0,29.77,29.63,29.52,10,10,10,28,15,36,0.06,7,Rain,98
2013-9-13,64,56,47,49,47,44,0,0,0,29.91,29.74,29.59,10,10,10,14,4,21,T,6,Rain,68
2013-9-14,65,53,40,50,46,42,0,0,0,30.02,29.97,29.93,10,10,6,20,9,24,0.00,2,,351
2013-9-15,61,50,39,46,43,40,0,0,0,30.04,29.99,29.91,10,10,10,20,10,24,0.00,2,,322
2013-9-16,57,46,35,46,42,36,0,0,0,29.90,29.78,29.66,10,10,10,13,5,17,0.00,4,,279
2013-9-17,53,41,28,37,32,28,0,0,0,29.69,29.60,29.55,10,9,1,21,9,28,0.00,2,,351
2013-9-18,53,41,29,34,30,25,0,0,0,29.79,29.75,29.71,10,10,10,8,2,8,0.00,3,,336
2013-9-19,50,39,28,35,29,25,0,0,0,29.72,29.69,29.63,10,10,6,15,6,20,0.00,3,,328
2013-9-20,48,36,24,31,27,22,0,0,0,29.61,29.36,28.85,10,10,10,15,7,20,T,5,Rain,38
2013-9-21,48,40,32,34,26,22,0,0,0,29.27,29.05,28.83,10,10,10,22,15,31,T,6,Rain,350
2013-9-22,49,39,29,29,25,22,0,0,0,29.60,29.47,29.30,10,10,9,23,12,31,0.00,4,,324
2013-9-23,48,37,25,29,26,24,0,0,0,29.87,29.77,29.62,10,10,10,16,8,20,0.00,3,,327
2013-9-24,56,40,24,46,34,22,0,0,0,29.85,29.65,29.41,10,10,6,33,11,41,0.03,6,Rain,101
2013-9-25,54,50,46,52,47,41,0,0,0,29.56,29.37,29.26,10,8,2,23,9,31,0.25,7,Rain,168
2013-9-26,49,42,34,46,40,34,0,0,0,29.69,29.53,28.83,10,7,0,25,10,35,0.49,7,Fog-Rain,184
2013-9-27,51,48,44,46,44,38,0,0,0,29.36,28.92,28.70,10,7,2,23,13,30,0.23,8,Rain,71
2013-9-28,45,41,36,40,32,25,0,0,0,29.57,29.44,29.37,10,10,10,30,16,39,0.06,7,Rain,333
2013-9-29,41,38,34,25,24,22,0,0,0,29.80,29.69,29.59,10,10,10,30,18,39,0.00,7,,328
2013-9-30,43,36,29,23,22,21,0,0,0,29.92,29.88,29.81,10,10,10,25,12,32,0.00,2,,329